Regional Weather Roundup
Issued by NWS Sioux Falls, SD

Home | Current Version | Previous Version | Graphics & Text | Print | Product List | Glossary Off
Versions: 1 2 3 4 5 6 7 8 9 10 11 12 13 14 15 16 17 18 19 20 21 22 23 24 25 26 27 28 29 30 31 32 33 34 35 36 37 38 39 40 41 42 43 44 45 46 47 48 49 50

000
ASUS43 KFSD 281610
RWRFSD

WEATHER ROUNDUP FOR SE SOUTH DAKOTA/SW MINNESOTA/NW IOWA
NATIONAL WEATHER SERVICE SIOUX FALLS SD
1000 AM CST WED JAN 28 2015

NOTE: "FAIR" INDICATES FEW OR NO CLOUDS BELOW 12,000 FEET WITH NO
SIGNIFICANT WEATHER AND OR OBSTRUCTIONS TO VISIBILITY.


SDZ038>040-050-052>070-281700-
SOUTHEAST SOUTH DAKOTA

CITY           SKY/WX    TMP DP  RH WIND       PRES   REMARKS
CHAMBERLAIN    PTSUNNY   37  33  85 NW8       29.72R
HURON          PTSUNNY   35  30  82 S7        29.70F WCI  29
MADISON        FAIR      32  32 100 S14       29.74R WCI  22
MITCHELL       MOSUNNY   36  32  85 S10       29.71F
SIOUX FALLS    CLOUDY    35  31  85 S15       29.76F WCI  25
WINNER         FAIR      50  33  52 W16       29.73S
YANKTON        PTSUNNY   36  30  80 SE9       29.76F
$$

MNZ071-072-080-081-089-090-097-098-281700-
SOUTHWEST MINNESOTA

CITY           SKY/WX    TMP DP  RH WIND       PRES   REMARKS
FAIRMONT       CLOUDY    30  27  86 SE23      29.86F WCI  17
JACKSON        CLOUDY    32  30  93 S21       29.85S FOG     WCI  20
LUVERNE        PTSUNNY   34  32  93 S13       29.79F FOG     WCI  25
MARSHALL       CLOUDY    34  28  80 S17       29.82S WCI  23
MONTEVIDEO     CLOUDY    34  32  93 S10G16    29.85S FOG     WCI  26
PIPESTONE      PTSUNNY   34  30  86 S13       29.76S FOG     WCI  25
REDWOOD FALLS  CLOUDY    33  30  88 SE22      29.85F FOG     WCI  21
TRACY          CLOUDY    33  32  94 S13G18    29.82S FOG     WCI  24
WINDOM         CLOUDY    32  30  93 SE18G28   29.82S FOG     WCI  20
WORTHINGTON    CLOUDY    30  28  93 S17G24    29.81F WCI  18
$$

IAZ001>003-012>014-020>022-031-032-NEZ013-014-SDZ071-281700-
NORTHWEST IOWA

CITY           SKY/WX    TMP DP  RH WIND       PRES   REMARKS
CHEROKEE       CLOUDY    32  32  99 SE10      29.85S FOG     WCI  24
DENISON        PTSUNNY   36  32  87 SE17G25   29.82F
ESTHERVILLE    CLOUDY    30  29  96 S24G32    29.86F FOG     WCI  16
LE MARS        PTSUNNY   36  32  87 S12G18    29.82F
ORANGE CITY    PTSUNNY   34  30  86 SE13G21   29.80F FOG     WCI  25
SHELDON        MOSUNNY   32  32 100 SE20G29   29.79F FOG     WCI  20
SIOUX CITY     PTSUNNY   36  31  82 SE13      29.82F
SPENCER        CLOUDY    32  29  88 SE23G29   29.84F FOG     WCI  19
STORM LAKE     CLOUDY    30  30 100 SE22G29   29.84F FOG     WCI  17
$$

ABBREVIATIONS USED IN REMARKS
   TC - TEMPERATURE IN CELSIUS
  WCI - WIND CHILL INDEX
   HX - HEAT INDEX
  VSB - VISIBILITY




USA.gov is the U.S. government's official web portal to all federal, state and local government web resources and services.